World > North America > United States > Texas

Hubbard, Texas Regional Weather

Lat: 31.85N, Lon: 96.8W
Wx Zone: TXZ145Web Search

Helpful Tip: Abbreviated, 7 Day, 14 Day Forecasts. There is a weather forecast for every taste.

Feedback


°F Click to change Hubbard hourly weather to Imperial units.Click to change Hubbard hourly weather to Metric units. °C
Hubbard Weather Map
UTC Time: 4/17/2021, 23:40
Your Time:

Hubbard, TX Regional Weather

Expires:202104180000;;713395
ASUS44 KFWD 172315
RWRTX 
NORTH TEXAS HOURLY WEATHER ROUNDUP
NATIONAL WEATHER SERVICE FORT WORTH TX
600 PM CDT SAT APR 17 2021

NOTE: "FAIR" INDICATES FEW OR NO CLOUDS BELOW 12,000 FEET WITH NO
SIGNIFICANT WEATHER AND/OR OBSTRUCTIONS TO VISIBILITY.


TXZ143>147-156>162-174-175-180000-
CENTRAL TEXAS
  
CITY           SKY/WX    TMP DP  RH WIND       PRES   REMARKS
WACO           CLOUDY    57  43  59 N12       30.06S                  
WACO-TSTC      LGT RAIN  57  43  58 N13G21    30.06S                  
WACO-MCGREGOR  CLOUDY    56  44  64 N9        30.07S                  
HILLSBORO      FAIR      59  43  55 N13G21    30.07R                  
CORSICANA      FAIR      58  43  57 N9        30.08R                  
MEXIA          CLOUDY    55  47  73 N5        30.05S                  
HEARNE         CLOUDY    58  45  62 CALM      30.07S                  
CAMERON        CLOUDY    56  43  61 N7        30.08R                  
TEMPLE         PTSUNNY   56  44  64 N7        30.08R                  
KILLEEN        PTSUNNY   57  41  56 N12       30.07R                  
FORT HOOD      FAIR      56  41  57 N15       30.08R                  
GATESVILLE     FAIR      55  41  58 N13       30.10R                  
HAMILTON       CLOUDY    55  41  60 N15G21    30.08S                  
LAMPASAS       PTSUNNY   54  40  58 N10G17    30.07S                  
$$


SKY/WX - Weather  TMP - Temperature  DP - Dew Point  RH - Relative Humidity
WIND - Wind Direction/Speed PRES - Barometric Pressure VSB - Visibility
WCI - Wind Chill Index E13G22 Wind - East Wind 13 mph/Gusts of 22 mph